Time,TemperatureF,DewpointF,PressureIn,WindDirection,WindDirectionDegrees,WindSpeedMPH,WindSpeedGustMPH,Humidity,HourlyPrecipIn,Conditions,Clouds,dailyrainin,SoftwareType,DateUTC
2013-03-03 00:10:00,47.0,-99.9,-100.00,NNW,337,2.0,2.0,-999,-99.99,,,-99.99,,2013-03-03 07:10:00,
2013-03-03 00:32:00,47.0,-99.9,-100.00,NNW,333,1.0,2.0,-999,-99.99,,,-99.99,,2013-03-03 07:32:00,
2013-03-03 00:42:00,47.0,-99.9,-100.00,NNW,333,1.0,2.0,-999,-99.99,,,-99.99,,2013-03-03 07:42:00,
2013-03-03 00:52:00,47.0,-99.9,-100.00,NNW,337,2.0,2.0,-999,-99.99,,,-99.99,,2013-03-03 07:52:00,
2013-03-03 01:01:00,47.0,-99.9,-100.00,NNW,337,2.0,2.0,-999,-99.99,,,-99.99,,2013-03-03 08:01:00,
2013-03-03 02:30:00,43.0,-99.9,-100.00,SW,230,1.0,1.0,-999,-99.99,,,-99.99,,2013-03-03 09:30:00,
2013-03-03 03:22:00,43.0,-99.9,-100.00,SW,230,1.0,1.0,-999,-99.99,,,-99.99,,2013-03-03 10:22:00,
2013-03-03 05:02:00,36.0,-99.9,-100.00,West,263,0.0,0.0,-999,-99.99,,,-99.99,,2013-03-03 12:02:00,
2013-03-03 05:11:00,36.0,-99.9,-100.00,West,263,0.0,0.0,-999,-99.99,,,-99.99,,2013-03-03 12:11:00,
2013-03-03 05:22:00,36.0,-99.9,-100.00,West,263,0.0,0.0,-999,-99.99,,,-99.99,,2013-03-03 12:22:00,
2013-03-03 05:30:00,36.0,-99.9,-100.00,NNE,12,1.0,1.0,-999,-99.99,,,-99.99,,2013-03-03 12:30:00,
2013-03-03 06:02:00,36.0,-99.9,-100.00,NNE,26,0.0,0.0,-999,-99.99,,,-99.99,,2013-03-03 13:02:00,
2013-03-03 06:11:00,36.0,-99.9,-100.00,NNE,26,0.0,0.0,-999,-99.99,,,-99.99,,2013-03-03 13:11:00,
2013-03-03 06:22:00,36.0,-99.9,-100.00,NNE,12,1.0,1.0,-999,-99.99,,,-99.99,,2013-03-03 13:22:00,
2013-03-03 06:40:00,36.0,-99.9,-100.00,NNW,328,1.0,1.0,-999,-99.99,,,-99.99,,2013-03-03 13:40:00,
2013-03-03 07:22:00,36.0,-99.9,-100.00,NNW,328,1.0,1.0,-999,-99.99,,,-99.99,,2013-03-03 14:22:00,
2013-03-03 07:32:00,36.0,-99.9,-100.00,NNW,328,1.0,1.0,-999,-99.99,,,-99.99,,2013-03-03 14:32:00,
2013-03-03 07:52:00,38.0,-99.9,-100.00,SW,223,0.0,2.0,-999,-99.99,,,-99.99,,2013-03-03 14:52:00,
2013-03-03 08:02:00,38.0,-99.9,-100.00,SW,223,0.0,2.0,-999,-99.99,,,-99.99,,2013-03-03 15:02:00,
2013-03-03 08:11:00,38.0,-99.9,-100.00,SW,223,0.0,2.0,-999,-99.99,,,-99.99,,2013-03-03 15:11:00,
2013-03-03 08:30:00,58.0,-99.9,-100.00,SW,231,1.0,1.0,-999,-99.99,,,-99.99,,2013-03-03 15:30:00,
2013-03-03 08:33:00,58.0,-99.9,-100.00,NE,35,1.0,1.0,-999,-99.99,,,-99.99,,2013-03-03 15:33:00,
2013-03-03 08:42:00,58.0,-99.9,-100.00,NE,35,1.0,1.0,-999,-99.99,,,-99.99,,2013-03-03 15:42:00,
2013-03-03 09:02:00,60.0,-99.9,-100.00,SSW,198,0.0,1.0,-999,-99.99,,,-99.99,,2013-03-03 16:02:00,
2013-03-03 09:12:00,60.0,-99.9,-100.00,SSW,198,0.0,1.0,-999,-99.99,,,-99.99,,2013-03-03 16:12:00,
2013-03-03 09:22:00,58.0,-99.9,-100.00,SW,231,1.0,1.0,-999,-99.99,,,-99.99,,2013-03-03 16:22:00,
2013-03-03 11:02:00,69.0,-99.9,-100.00,West,269,2.0,4.0,-999,-99.99,,,-99.99,,2013-03-03 18:02:00,
2013-03-03 11:11:00,69.0,-99.9,-100.00,West,269,2.0,4.0,-999,-99.99,,,-99.99,,2013-03-03 18:11:00,
2013-03-03 11:22:00,76.0,-99.9,-100.00,East,91,0.0,3.0,-999,-99.99,,,-99.99,,2013-03-03 18:22:00,
2013-03-03 11:32:00,76.0,-99.9,-100.00,East,91,0.0,3.0,-999,-99.99,,,-99.99,,2013-03-03 18:32:00,
2013-03-03 11:42:00,76.0,-99.9,-100.00,East,91,0.0,3.0,-999,-99.99,,,-99.99,,2013-03-03 18:42:00,
2013-03-03 13:53:00,88.0,-99.9,-100.00,East,83,1.0,4.0,-999,-99.99,,,-99.99,,2013-03-03 20:53:00,
2013-03-03 14:02:00,88.0,-99.9,-100.00,East,83,1.0,4.0,-999,-99.99,,,-99.99,,2013-03-03 21:02:00,
2013-03-03 14:22:00,89.0,-99.9,-100.00,East,89,0.0,5.0,-999,-99.99,,,-99.99,,2013-03-03 21:22:00,
2013-03-03 14:32:00,83.0,-99.9,-100.00,NNW,330,2.0,5.0,-999,-99.99,,,-99.99,,2013-03-03 21:32:00,
2013-03-03 14:42:00,83.0,-99.9,-100.00,NNW,330,2.0,5.0,-999,-99.99,,,-99.99,,2013-03-03 21:42:00,
2013-03-03 14:52:00,83.0,-99.9,-100.00,NNW,330,2.0,5.0,-999,-99.99,,,-99.99,,2013-03-03 21:52:00,
2013-03-03 15:02:00,86.0,-99.9,-100.00,NE,37,4.0,6.0,-999,-99.99,,,-99.99,,2013-03-03 22:02:00,
2013-03-03 15:11:00,86.0,-99.9,-100.00,NE,37,4.0,6.0,-999,-99.99,,,-99.99,,2013-03-03 22:11:00,
2013-03-03 15:22:00,86.0,-99.9,-100.00,NE,37,4.0,6.0,-999,-99.99,,,-99.99,,2013-03-03 22:22:00,
2013-03-03 16:00:00,79.0,-99.9,-100.00,NNE,23,3.0,6.0,-999,-99.99,,,-99.99,,2013-03-03 23:00:00,
2013-03-03 16:32:00,79.0,-99.9,-100.00,NNE,23,3.0,6.0,-999,-99.99,,,-99.99,,2013-03-03 23:32:00,
2013-03-03 16:42:00,79.0,-99.9,-100.00,NNE,23,3.0,6.0,-999,-99.99,,,-99.99,,2013-03-03 23:42:00,
2013-03-03 16:52:00,79.0,-99.9,-100.00,NNE,23,3.0,6.0,-999,-99.99,,,-99.99,,2013-03-03 23:52:00,
2013-03-03 19:00:00,66.0,-99.9,-100.00,NE,45,2.0,6.0,-999,-99.99,,,-99.99,,2013-03-04 02:00:00,
2013-03-03 19:30:00,65.0,-99.9,-100.00,NE,41,3.0,5.0,-999,-99.99,,,-99.99,,2013-03-04 02:30:00,
2013-03-03 19:32:00,66.0,-99.9,-100.00,NE,45,2.0,6.0,-999,-99.99,,,-99.99,,2013-03-04 02:32:00,
2013-03-03 19:42:00,66.0,-99.9,-100.00,NE,45,2.0,6.0,-999,-99.99,,,-99.99,,2013-03-04 02:42:00,
2013-03-03 19:53:00,66.0,-99.9,-100.00,NE,45,2.0,6.0,-999,-99.99,,,-99.99,,2013-03-04 02:53:00,
2013-03-03 20:10:00,65.0,-99.9,-100.00,East,87,2.0,4.0,-999,-99.99,,,-99.99,,2013-03-04 03:10:00,
2013-03-03 20:22:00,65.0,-99.9,-100.00,NE,41,3.0,5.0,-999,-99.99,,,-99.99,,2013-03-04 03:22:00,
2013-03-03 20:53:00,65.0,-99.9,-100.00,East,87,2.0,4.0,-999,-99.99,,,-99.99,,2013-03-04 03:53:00,
2013-03-03 21:02:00,65.0,-99.9,-100.00,East,87,2.0,4.0,-999,-99.99,,,-99.99,,2013-03-04 04:02:00,
2013-03-03 22:52:00,60.0,-99.9,-100.00,ENE,58,1.0,2.0,-999,-99.99,,,-99.99,,2013-03-04 05:52:00,
2013-03-03 23:02:00,60.0,-99.9,-100.00,ENE,58,1.0,2.0,-999,-99.99,,,-99.99,,2013-03-04 06:02:00,